DW4719 Vilanova I la Geltru ES current weather conditions

sailwx.info

Wind from 056

Air temperature 23.9° C
Dewpoint 16.4° C

Last reported at 2014-Jul-23 06:51 UTC.
Time now 2014-Jul-23 07:56 UTC

Location: N 41°13' E 001°44'.
View on Google Maps.

See reports from other nearby stations

  
Tides and Currents Weather Stations Pressure Air Temp Water Temp Dewpoint Dewpoint Depression Visibility Wind Speed Wind Dir Waves Ship Positions
date/time (UTC)wind fromknots sea level pressurealtimeterstation pressurevisibilityair tempwater tempwave heightnotes
2014-Jul-23 06:51 056 23.9
2014-Jul-23 06:45 056 23.3
2014-Jul-23 06:40 058 22.8
2014-Jul-23 06:34 056 22.8
2014-Jul-23 06:31 056 22.2
2014-Jul-23 06:25 056 22.2
2014-Jul-23 06:20 056 21.7
2014-Jul-23 06:15 056 21.7
2014-Jul-23 06:11 056 21.1
2014-Jul-23 06:05 056 21.1
2014-Jul-23 06:00 056 20.6
2014-Jul-23 05:56 056 20.6
2014-Jul-23 05:48 056 20.0
2014-Jul-23 05:46 056 20.0
2014-Jul-23 05:40 056 19.4
2014-Jul-23 05:35 056 19.4
2014-Jul-23 05:28 056 0 19.4
2014-Jul-23 05:26 056 0 18.9
2014-Jul-23 05:20 061 0 18.9
2014-Jul-23 05:16 062 1 18.9
2014-Jul-23 05:11 062 0 18.9
2014-Jul-23 05:05 040 18.9
2014-Jul-23 05:01 032 18.9
2014-Jul-23 04:56 030 18.9
2014-Jul-23 04:50 062 18.9
2014-Jul-23 04:46 055 18.9
2014-Jul-23 04:41 055 18.9
2014-Jul-23 04:34 055 19.4
2014-Jul-23 04:31 055 19.4
2014-Jul-23 04:26 055 18.9
2014-Jul-23 04:21 055 18.9
2014-Jul-23 04:16 055 19.4
2014-Jul-23 04:09 055 19.4
2014-Jul-23 04:03 055 19.4
2014-Jul-23 04:00 055 19.4
2014-Jul-23 03:56 055 19.4
2014-Jul-23 03:51 055 19.4
2014-Jul-23 03:45 055 19.4
2014-Jul-23 03:40 061 19.4
2014-Jul-23 03:36 061 19.4
2014-Jul-23 03:31 061 19.4
2014-Jul-23 03:26 061 19.4
2014-Jul-23 03:20 061 19.4
2014-Jul-23 03:13 061 19.4
2014-Jul-23 03:10 062 19.4
2014-Jul-23 03:05 062 19.4
2014-Jul-23 03:00 062 19.4
2014-Jul-23 02:56 062 19.4
2014-Jul-23 02:51 062 19.4
2014-Jul-23 02:46 062 19.4
2014-Jul-23 02:40 062 20.0
2014-Jul-23 02:33 062 20.0
2014-Jul-23 02:30 049 20.0
2014-Jul-23 02:25 049 0 20.0
2014-Jul-23 02:21 051 0 20.0
2014-Jul-23 02:15 052 20.0
2014-Jul-23 02:10 068 20.0
2014-Jul-23 02:05 068 20.0
2014-Jul-23 02:00 068 20.0
2014-Jul-23 01:56 068 20.0
2014-Jul-23 01:51 068 20.0
2014-Jul-23 01:46 068 20.0
2014-Jul-23 01:40 068 20.6
2014-Jul-23 01:36 085 20.6
2014-Jul-23 01:31 085 20.6
2014-Jul-23 01:26 086 20.6
2014-Jul-23 01:21 086 20.6
2014-Jul-23 01:14 093 20.6
2014-Jul-23 01:09 093 20.6
2014-Jul-23 01:06 096 20.6
2014-Jul-23 01:01 097 20.6
2014-Jul-23 00:53 107 20.6
2014-Jul-23 00:51 107 20.6
2014-Jul-23 00:45 107 21.1
2014-Jul-23 00:41 107 20.6
2014-Jul-23 00:35 114 21.1
2014-Jul-23 00:31 116 21.1
2014-Jul-23 00:26 116 21.1
2014-Jul-23 00:20 114 21.1
2014-Jul-23 00:15 116 21.1
2014-Jul-23 00:11 116 21.1
2014-Jul-23 00:06 116 21.1
2014-Jul-23 00:01 114 21.1
2014-Jul-22 23:56 116 21.1
2014-Jul-22 23:50 116 21.7
2014-Jul-22 23:45 168 21.7
2014-Jul-22 23:39 168 21.7
2014-Jul-22 23:33 168 21.7
2014-Jul-22 23:31 168 21.7
2014-Jul-22 23:26 167 21.7
2014-Jul-22 23:20 168 22.2
2014-Jul-22 23:13 178 22.2
2014-Jul-22 23:11 178 22.2
2014-Jul-22 23:05 178 22.2
2014-Jul-22 23:01 178 22.2
2014-Jul-22 22:56 178 22.2
2014-Jul-22 22:51 178 22.2
2014-Jul-22 22:45 178 22.2
2014-Jul-22 22:41 178 22.2
2014-Jul-22 22:36 178 22.2
2014-Jul-22 22:31 178 22.2
2014-Jul-22 22:24 178 22.8
2014-Jul-22 22:20 178 22.8
2014-Jul-22 22:14 178 22.8
2014-Jul-22 22:11 178 22.8
2014-Jul-22 22:04 178 22.8
2014-Jul-22 22:01 179 22.8
2014-Jul-22 21:56 179 22.8
2014-Jul-22 21:49 179 22.8
2014-Jul-22 21:46 179 22.8
2014-Jul-22 21:40 179 22.8
2014-Jul-22 21:36 179 23.3
2014-Jul-22 21:31 179 23.3
2014-Jul-22 21:26 179 23.3
2014-Jul-22 21:17 179 23.3
2014-Jul-22 21:16 179 23.3
2014-Jul-22 21:10 179 23.9
2014-Jul-22 21:06 179 23.9
2014-Jul-22 21:01 179 23.9
2014-Jul-22 20:56 179 23.9
2014-Jul-22 20:50 179 24.4
2014-Jul-22 20:45 179 24.4
2014-Jul-22 20:41 179 24.4
2014-Jul-22 20:36 179 24.4
2014-Jul-22 20:30 179 24.4
2014-Jul-22 20:26 179 24.4
2014-Jul-22 20:17 179 24.4
2014-Jul-22 20:15 179 24.4
2014-Jul-22 20:10 179 24.4
2014-Jul-22 20:06 179 24.4
2014-Jul-22 20:00 179 24.4
2014-Jul-22 19:55 178 24.4
2014-Jul-22 19:50 178 24.4
2014-Jul-22 19:46 254 24.4
2014-Jul-22 19:41 254 24.4
2014-Jul-22 19:36 254 24.4
2014-Jul-22 19:31 254 24.4
2014-Jul-22 19:25 244 24.4
2014-Jul-22 19:18 244 24.4
2014-Jul-22 19:16 240 0 24.4
2014-Jul-22 19:10 232 1 24.4
2014-Jul-22 19:05 247 2 24.4
2014-Jul-22 19:01 234 2 24.4
2014-Jul-22 18:55 250 2 24.4
2014-Jul-22 18:51 196 2 24.4
2014-Jul-22 18:45 246 2 25.0
2014-Jul-22 18:41 260 1 25.0
2014-Jul-22 18:36 217 0 25.0
2014-Jul-22 18:31 254 1 25.6
2014-Jul-22 18:24 258 2 25.0
2014-Jul-22 18:21 224 3 25.0
2014-Jul-22 18:16 263 3 25.0
2014-Jul-22 18:09 256 4 25.6
2014-Jul-22 18:05 230 4 25.6
2014-Jul-22 18:01 243 2 25.6
2014-Jul-22 17:55 223 1 26.1
2014-Jul-22 17:50 229 3 25.6
2014-Jul-22 17:45 206 3 25.6
2014-Jul-22 17:41 193 2 26.1
2014-Jul-22 17:36 209 2 26.1
2014-Jul-22 17:30 224 1 26.1
2014-Jul-22 17:23 195 26.1
2014-Jul-22 17:20 157 0 26.1
2014-Jul-22 17:16 162 0 26.1
2014-Jul-22 17:10 226 1 26.1
2014-Jul-22 17:04 198 1 26.1
2014-Jul-22 16:59 202 0 26.1
2014-Jul-22 16:53 167 26.1
2014-Jul-22 16:51 168 26.1
2014-Jul-22 16:45 144 26.1
2014-Jul-22 16:39 161 26.7
2014-Jul-22 16:36 179 26.7
2014-Jul-22 16:31 181 26.7
2014-Jul-22 16:25 175 26.7
2014-Jul-22 16:21 168 26.7
2014-Jul-22 16:16 174 0 26.7
2014-Jul-22 16:10 224 0 26.7
2014-Jul-22 16:05 210 0 26.7
2014-Jul-22 16:00 220 1 26.7
2014-Jul-22 15:54 236 1 26.1
2014-Jul-22 15:50 213 1 26.1
2014-Jul-22 15:44 240 1 26.1
2014-Jul-22 15:41 232 1 26.7
2014-Jul-22 15:36 227 0 26.7
2014-Jul-22 15:30 195 0 26.7
2014-Jul-22 15:26 195 0 26.1
2014-Jul-22 15:21 186 1 26.1
2014-Jul-22 15:16 226 2 25.6
2014-Jul-22 15:11 222 2 26.1
2014-Jul-22 15:05 229 1 26.1
2014-Jul-22 14:59 251 1 26.1
2014-Jul-22 14:56 203 1 26.1
2014-Jul-22 14:51 193 2 26.1
2014-Jul-22 14:44 202 2 26.1
2014-Jul-22 14:41 230 1 26.1
2014-Jul-22 14:35 203 2 26.1
2014-Jul-22 14:30 181 2 26.1
2014-Jul-22 14:25 212 2 26.1
2014-Jul-22 14:21 181 2 26.1
2014-Jul-22 14:16 203 2 26.1
2014-Jul-22 14:10 270 2 26.1
2014-Jul-22 14:04 219 1 26.7
2014-Jul-22 13:59 224 2 26.1
2014-Jul-22 13:55 189 3 26.1
2014-Jul-22 13:51 246 2 26.1
2014-Jul-22 13:45 179 1 26.1
2014-Jul-22 13:40 188 2 26.1
2014-Jul-22 13:35 224 2 26.1
2014-Jul-22 13:30 209 2 26.1
2014-Jul-22 13:26 213 2 26.1
2014-Jul-22 13:21 251 4 26.1
2014-Jul-22 13:16 280 4 26.1
2014-Jul-22 13:11 233 3 26.1
2014-Jul-22 13:06 229 3 26.1
2014-Jul-22 12:59 193 3 26.1
2014-Jul-22 12:56 206 4 26.1
2014-Jul-22 12:51 240 5 26.1
2014-Jul-22 12:45 202 4 26.1
2014-Jul-22 12:40 234 3 26.1
2014-Jul-22 12:36 234 2 26.7
2014-Jul-22 12:28 196 1 26.1
2014-Jul-22 12:25 209 0 26.7
2014-Jul-22 12:20 192 0 26.7
2014-Jul-22 12:15 241 1 26.1
2014-Jul-22 12:11 193 1 26.1
2014-Jul-22 12:06 236 2 26.1
2014-Jul-22 11:58 200 2 26.1
2014-Jul-22 11:56 224 2 26.1
2014-Jul-22 11:51 186 2 25.6
2014-Jul-22 11:46 179 2 26.1
2014-Jul-22 11:40 188 1 25.6
2014-Jul-22 11:34 157 1 26.1
2014-Jul-22 11:29 198 1 25.6
2014-Jul-22 11:22 191 2 26.1
2014-Jul-22 11:20 203 2 26.1
2014-Jul-22 11:15 240 1 26.7
2014-Jul-22 11:11 144 0 26.7
2014-Jul-22 11:05 189 0 26.1
2014-Jul-22 11:00 138 26.7
2014-Jul-22 10:56 175 26.1
2014-Jul-22 10:51 113 0 26.1
2014-Jul-22 10:46 167 0 26.1
2014-Jul-22 10:41 141 0 26.1
2014-Jul-22 10:34 140 0 26.1
2014-Jul-22 10:29 167 0 25.6
2014-Jul-22 10:25 147 1 25.6
2014-Jul-22 10:20 147 3 25.6
2014-Jul-22 10:13 151 4 25.6
2014-Jul-22 10:11 143 3 25.6
2014-Jul-22 10:05 145 3 25.6
2014-Jul-22 10:00 148 3 26.1
2014-Jul-22 09:55 133 3 25.6
2014-Jul-22 09:50 127 4 25.6
2014-Jul-22 09:45 121 4 25.6
2014-Jul-22 09:40 137 2 25.6
2014-Jul-22 09:36 144 2 25.6
2014-Jul-22 09:30 124 5 25.6
2014-Jul-22 09:26 114 5 26.1
2014-Jul-22 09:21 137 4 26.1
2014-Jul-22 09:15 130 2 26.7
2014-Jul-22 09:10 114 1 27.2
2014-Jul-22 09:06 143 1 27.2
2014-Jul-22 09:01 147 0 27.2
2014-Jul-22 08:56 069 27.8
2014-Jul-22 08:50 065 27.8
2014-Jul-22 08:45 065 0 27.2
2014-Jul-22 08:39 065 0 26.7
2014-Jul-22 08:36 065 1 26.7
2014-Jul-22 08:30 066 2 26.7
2014-Jul-22 08:25 076 2 26.7
2014-Jul-22 08:21 079 1 26.7
2014-Jul-22 08:16 059 26.7
2014-Jul-22 08:09 061 0 26.7
2014-Jul-22 08:05 001 0 26.1
2014-Jul-22 08:01 007 0 26.1
2014-Jul-22 07:56 017 0 26.1
2014-Jul-22 07:50 360 2 25.6
2014-Jul-22 07:46 062 3 25.6
2014-Jul-22 07:39 054 2 25.6
2014-Jul-22 07:35 082 1 25.6
2014-Jul-22 07:30 068 0 25.6
2014-Jul-22 07:25 062 0 25.0
2014-Jul-22 07:21 073 1 25.0
2014-Jul-22 07:16 051 2 24.4
2014-Jul-22 07:10 052 2 24.4
2014-Jul-22 07:04 066 2 24.4
2014-Jul-22 07:01 059 2 23.9
2014-Jul-22 06:56 061 0 23.9
2014-Jul-22 06:51 071 0 23.9
2014-Jul-22 06:46 056 1 23.9
2014-Jul-22 06:39 068 0 23.3
2014-Jul-22 06:36 054 0 23.3
2014-Jul-22 06:31 064 23.3
2014-Jul-22 06:26 058 23.3
2014-Jul-22 06:20 058 23.3
2014-Jul-22 06:16 058 22.8
2014-Jul-22 06:10 058 22.8
2014-Jul-22 06:05 058 22.2
2014-Jul-22 06:00 058 22.2
2014-Jul-22 05:56 058 22.2
2014-Jul-22 05:51 058 21.7
2014-Jul-22 05:45 058 21.7
2014-Jul-22 05:41 058 21.7
2014-Jul-22 05:36 058 21.1
2014-Jul-22 05:31 058 21.1
2014-Jul-22 05:26 058 21.1
2014-Jul-22 05:20 058 21.1
2014-Jul-22 05:14 010 20.6
2014-Jul-22 05:11 360 20.6
2014-Jul-22 05:05 360 20.6
2014-Jul-22 05:00 360 20.6
2014-Jul-22 04:55 360 20.6
2014-Jul-22 04:51 360 20.6
2014-Jul-22 04:44 360 20.6
2014-Jul-22 04:40 008 20.6
2014-Jul-22 04:35 124 20.6
2014-Jul-22 04:31 360 20.6
2014-Jul-22 04:25 007 20.6
2014-Jul-22 04:21 007 20.6
2014-Jul-22 04:14 006 20.6
2014-Jul-22 04:10 006 20.6
2014-Jul-22 04:06 360 20.6
2014-Jul-22 04:00 004 0 20.6
2014-Jul-22 03:53 018 0 20.6
2014-Jul-22 03:51 006 0 20.6
2014-Jul-22 03:45 360 0 20.6
2014-Jul-22 03:41 318 0 20.6
2014-Jul-22 03:35 003 20.6
2014-Jul-22 03:29 003 20.6
2014-Jul-22 03:26 014 20.6
2014-Jul-22 03:21 016 0 20.6
2014-Jul-22 03:14 295 0 20.6
2014-Jul-22 03:11 344 20.6
2014-Jul-22 03:06 360 20.6
2014-Jul-22 03:00 062 20.0
2014-Jul-22 02:55 062 20.0
2014-Jul-22 02:51 062 20.0
2014-Jul-22 02:44 062 20.0
2014-Jul-22 02:40 062 20.0
2014-Jul-22 02:36 062 20.0
2014-Jul-22 02:31 062 20.0
2014-Jul-22 02:26 062 20.0
2014-Jul-22 02:20 062 20.6
2014-Jul-22 02:16 062 20.6
2014-Jul-22 02:10 062 20.6
2014-Jul-22 02:04 061 20.6
2014-Jul-22 02:00 061 20.6
2014-Jul-22 01:54 061 20.6
2014-Jul-22 01:50 061 20.6
2014-Jul-22 01:44 061 20.6
2014-Jul-22 01:40 061 20.6
2014-Jul-22 01:35 061 20.6
2014-Jul-22 01:31 061 20.6
2014-Jul-22 01:25 061 21.1
2014-Jul-22 01:19 061 21.1
2014-Jul-22 01:15 061 21.1
2014-Jul-22 01:11 061 21.1
2014-Jul-22 01:05 061 21.1
2014-Jul-22 01:00 061 21.1
2014-Jul-22 00:56 068 21.1
2014-Jul-22 00:50 068 21.1
2014-Jul-22 00:46 068 21.1
2014-Jul-22 00:40 068 21.7
2014-Jul-22 00:34 068 21.7
2014-Jul-22 00:31 068 21.7
2014-Jul-22 00:26 068 21.7
2014-Jul-22 00:20 068 21.7
2014-Jul-22 00:16 068 21.7
2014-Jul-22 00:11 068 21.7
2014-Jul-22 00:05 068 21.7
2014-Jul-22 00:00 068 21.7
2014-Jul-21 23:55 068 21.7
2014-Jul-21 23:48 068 22.2
2014-Jul-21 23:46 068 22.2
2014-Jul-21 23:40 068 22.2
2014-Jul-21 23:34 068 22.2
2014-Jul-21 23:30 068 22.2
2014-Jul-21 23:26 068 22.2
2014-Jul-21 23:21 068 22.2
2014-Jul-21 23:16 068 22.2
2014-Jul-21 23:11 068 22.2
2014-Jul-21 23:06 068 22.8
2014-Jul-21 23:00 068 22.8
2014-Jul-21 22:54 068 22.8
2014-Jul-21 22:51 068 22.8
2014-Jul-21 22:46 068 22.8
2014-Jul-21 22:40 068 22.8
2014-Jul-21 22:34 069 22.8
2014-Jul-21 22:31 069 22.8
2014-Jul-21 22:25 071 22.8
2014-Jul-21 22:20 071 23.3
2014-Jul-21 22:15 072 23.3
2014-Jul-21 22:10 080 23.3
2014-Jul-21 22:06 080 23.3
2014-Jul-21 22:00 085 23.3
2014-Jul-21 21:54 085 23.3
2014-Jul-21 21:50 085 23.3
2014-Jul-21 21:45 085 23.3
2014-Jul-21 21:41 085 23.3
2014-Jul-21 21:35 085 23.3
2014-Jul-21 21:30 085 23.3
2014-Jul-21 21:25 085 23.3
2014-Jul-21 21:21 085 23.3
2014-Jul-21 21:15 085 23.9
2014-Jul-21 21:10 085 23.9
2014-Jul-21 21:06 085 23.9
2014-Jul-21 21:01 085 23.9
2014-Jul-21 20:55 103 23.9
2014-Jul-21 20:51 064 23.9
2014-Jul-21 20:45 088 23.9
2014-Jul-21 20:41 088 23.9
2014-Jul-21 20:35 085 23.9
2014-Jul-21 20:30 078 23.9
2014-Jul-21 20:24 071 23.9
2014-Jul-21 20:21 116 23.9
2014-Jul-21 20:15 072 23.9
2014-Jul-21 20:10 078 23.9
2014-Jul-21 20:05 109 23.9
2014-Jul-21 20:00 092 23.9
2014-Jul-21 19:56 090 23.9
2014-Jul-21 19:51 082 23.9
2014-Jul-21 19:45 086 23.9
2014-Jul-21 19:41 085 23.9
2014-Jul-21 19:35 079 23.9
2014-Jul-21 19:29 102 24.4
2014-Jul-21 19:26 068 24.4
2014-Jul-21 19:21 089 24.4
2014-Jul-21 19:15 086 0 24.4
2014-Jul-21 19:09 085 0 24.4
2014-Jul-21 19:04 113 1 25.0
2014-Jul-21 19:00 116 1 25.0
2014-Jul-21 18:55 102 1 25.0
2014-Jul-21 18:51 106 1 25.0
2014-Jul-21 18:46 116 0 25.0
2014-Jul-21 18:41 123 0 25.0
2014-Jul-21 18:35 114 25.6
2014-Jul-21 18:30 086 1 25.6
2014-Jul-21 18:23 140 1 25.6
2014-Jul-21 18:21 138 0 25.6
2014-Jul-21 18:15 120 1 25.6
2014-Jul-21 18:10 124 4 25.6
2014-Jul-21 18:04 133 4 25.6
2014-Jul-21 17:59 104 2 26.1
2014-Jul-21 17:56 128 2 26.1
2014-Jul-21 17:51 136 2 25.6
2014-Jul-21 17:46 112 2 26.1
2014-Jul-21 17:41 134 2 26.1
2014-Jul-21 17:36 151 1 26.1
2014-Jul-21 17:29 073 0 26.1
2014-Jul-21 17:26 079 1 26.1
2014-Jul-21 17:21 066 3 26.1
2014-Jul-21 17:16 104 5 26.1
2014-Jul-21 17:10 117 5 26.1
2014-Jul-21 17:05 134 4 26.1
2014-Jul-21 16:59 097 4 26.1
2014-Jul-21 16:56 127 3 26.1
2014-Jul-21 16:50 123 4 26.1
2014-Jul-21 16:46 121 4 26.1
2014-Jul-21 16:41 117 4 26.1
2014-Jul-21 16:35 089 5 26.1
2014-Jul-21 16:31 089 6 26.1
2014-Jul-21 16:26 075 4 26.7
2014-Jul-21 16:21 082 1 26.7
2014-Jul-21 16:15 119 2 26.7
2014-Jul-21 16:11 109 3 26.7
2014-Jul-21 16:05 128 4 26.7
2014-Jul-21 16:01 128 5 26.7
2014-Jul-21 15:56 083 4 26.7
2014-Jul-21 15:50 107 4 26.1
2014-Jul-21 15:45 099 3 26.1
2014-Jul-21 15:41 107 3 26.1
2014-Jul-21 15:35 085 2 26.7
2014-Jul-21 15:30 126 1 26.7
2014-Jul-21 15:24 157 2 26.7
2014-Jul-21 15:21 136 1 27.2
2014-Jul-21 15:16 169 1 26.7
2014-Jul-21 15:11 130 1 26.7
2014-Jul-21 15:05 143 1 26.7
2014-Jul-21 14:58 148 2 26.7
2014-Jul-21 14:56 124 2 26.7
2014-Jul-21 14:50 155 1 27.2
2014-Jul-21 14:46 124 0 27.2
2014-Jul-21 14:41 167 0 27.2
2014-Jul-21 14:35 161 0 27.2
2014-Jul-21 14:30 151 1 26.7
2014-Jul-21 14:25 182 1 26.7
2014-Jul-21 14:20 113 0 27.2
2014-Jul-21 14:16 127 0 27.2
2014-Jul-21 14:11 155 2 27.2
2014-Jul-21 14:05 168 2 27.2
2014-Jul-21 14:01 176 2 27.2
2014-Jul-21 13:56 188 1 27.8
2014-Jul-21 13:50 185 1 27.2
2014-Jul-21 13:45 185 1 27.2
2014-Jul-21 13:40 181 3 26.7
2014-Jul-21 13:34 188 4 26.7
2014-Jul-21 13:31 215 4 26.7
2014-Jul-21 13:24 203 3 26.7
2014-Jul-21 13:21 174 3 26.7
2014-Jul-21 13:16 178 3 26.7
2014-Jul-21 13:11 196 4 26.7
2014-Jul-21 13:04 191 3 26.7
2014-Jul-21 13:00 196 2 27.2
2014-Jul-21 12:56 205 1 27.8
2014-Jul-21 12:51 240 1 27.2
2014-Jul-21 12:45 209 1 27.2
2014-Jul-21 12:39 121 2 26.7
2014-Jul-21 12:36 215 3 26.7
2014-Jul-21 12:30 191 4 26.7
2014-Jul-21 12:25 215 3 26.7
2014-Jul-21 12:20 233 3 27.2
2014-Jul-21 12:16 171 4 26.7
2014-Jul-21 12:10 195 4 26.7
2014-Jul-21 12:05 208 3 26.7
2014-Jul-21 11:59 202 4 26.7
2014-Jul-21 11:56 244 4 26.7
2014-Jul-21 11:50 227 2 27.2
2014-Jul-21 11:45 210 1 27.2
2014-Jul-21 11:38 182 2 26.7
2014-Jul-21 11:35 195 4 26.7
2014-Jul-21 11:30 208 5 26.1
2014-Jul-21 11:25 212 6 26.1
2014-Jul-21 11:21 208 6 26.1
2014-Jul-21 11:16 230 5 26.1
2014-Jul-21 11:10 198 6 26.1
2014-Jul-21 11:06 227 6 26.1
2014-Jul-21 11:00 227 4 27.2
2014-Jul-21 10:56 198 2 27.8
2014-Jul-21 10:51 191 2 27.2
2014-Jul-21 10:45 188 1 27.2
2014-Jul-21 10:40 236 0 27.2
2014-Jul-21 10:36 152 0 27.2
2014-Jul-21 10:29 185 1 26.1
2014-Jul-21 10:25 167 2 26.1
2014-Jul-21 10:20 192 3 26.1
2014-Jul-21 10:13 193 1 26.1
2014-Jul-21 10:11 213 2 26.1
2014-Jul-21 10:05 175 2 25.6
2014-Jul-21 09:59 171 3 25.6
2014-Jul-21 09:56 171 2 25.6
2014-Jul-21 09:51 198 2 25.6
2014-Jul-21 09:45 186 1 25.6
2014-Jul-21 09:41 198 1 25.6
2014-Jul-21 09:36 178 1 25.6
2014-Jul-21 09:30 188 1 25.6
2014-Jul-21 09:25 116 0 25.6
2014-Jul-21 09:21 198 0 25.0
2014-Jul-21 09:15 188 1 25.0
2014-Jul-21 09:10 144 2 24.4
2014-Jul-21 09:05 195 1 25.0
2014-Jul-21 09:01 121 0 25.0
2014-Jul-21 08:56 113 0 25.0
2014-Jul-21 08:50 116 0 24.4
2014-Jul-21 08:44 185 24.4
2014-Jul-21 08:40 168 24.4
2014-Jul-21 08:36 172 24.4
2014-Jul-21 08:30 174 23.9
2014-Jul-21 08:25 169 23.9
2014-Jul-21 08:21 174 23.9
2014-Jul-21 08:15 195 0 23.9
2014-Jul-21 08:11 186 0 24.4
2014-Jul-21 08:05 179 24.4
2014-Jul-21 08:01 161 25.0
2014-Jul-21 07:55 325 24.4
2014-Jul-21 07:51 325 24.4
2014-Jul-21 07:45 325 23.9
2014-Jul-21 07:40 277 23.9
2014-Jul-21 07:34 285 23.9
2014-Jul-21 07:30 285 23.3
2014-Jul-21 07:25 285 23.3
2014-Jul-21 07:20 285 23.3
2014-Jul-21 07:16 285 23.3
2014-Jul-21 07:11 285 23.3
2014-Jul-21 07:06 285 23.9